Regional Weather Roundup
Issued by NWS

Home | Current Version | Previous Version | Text Only | Print | Product List | Glossary On
Versions: 1 2 3 4 5 6 7 8 9 10 11 12 13 14 15 16 17 18 19 20 21 22 23 24 25 26 27 28 29 30 31 32 33 34 35 36 37 38 39 40 41 42 43 44 45 46 47 48 49 50
000
ASUS44 KFWD 232201
RWRTX
NORTH TEXAS HOURLY WEATHER ROUNDUP
NATIONAL WEATHER SERVICE FORT WORTH TX
500 PM CDT SAT SEP 23 2017

NOTE: "FAIR" INDICATES FEW OR NO CLOUDS BELOW 12,000 FEET WITH NO
SIGNIFICANT WEATHER AND/OR OBSTRUCTIONS TO VISIBILITY.

TXZ118-119-232300-
DALLAS/FORT WORTH METROPLEX

CITY           SKY/WX    TMP DP  RH WIND       PRES   REMARKS
DFW AIRPORT    MOSUNNY   94  63  35 SE10G18   29.85F HX  95
DALLAS LOVE    MOSUNNY   94  61  33 SE15      29.86F HX  94
FTW MEACHAM    MOSUNNY   92  64  39 SE15      29.85F HX  93
DAL-EXECUTIVE  PTSUNNY   94  63  35 SE12G20   29.86F HX  95
FTW-ALLIANCE   PTSUNNY   93  63  36 S13G22    29.86F HX  94
FTW-NAS-JRB    MOSUNNY   94  61  33 SE18      29.86F HX  94
FTW-SPINKS     MOSUNNY   93  61  33 SE14G21   29.87F HX  93
ARLINGTON      PTSUNNY   93  66  40 SE10      29.86F HX  96
GRAND PRAIRIE  SUNNY     90  61  37 E8        29.88F
ADDISON        MOSUNNY   93  61  33 SE10G17   29.88F HX  93
MESQUITE       PTSUNNY   93  61  33 E10G16    29.87F HX  93
LANCASTER      PTSUNNY   94  63  36 E13G18    29.87F HX  95
$$

TXZ091>094-102>105-117-120-121-131>134-232300-
NORTH CENTRAL TEXAS

CITY           SKY/WX    TMP DP  RH WIND       PRES   REMARKS
SHRMAN/DENISON SUNNY     92  64  38 SE10      29.90S HX  93
GAINESVILLE    MOSUNNY   89  63  41 SE15      29.90F HX  90
BOWIE          PTSUNNY   89  65  44 SE7G20    29.88F HX  91
BRIDGEPORT     SUNNY     91  60  35 S15       29.89F HX  90
DENTON         SUNNY     92  64  39 SE12      29.86F HX  93
MCKINNEY       MOSUNNY   91  65  41 S10       29.88F HX  93
BONHAM         PTSUNNY   91  66  44 SE12      29.89F HX  93
ROCKWALL       PTSUNNY   92  66  42 S8        29.88F HX  95
TERRELL        SUNNY     93  61  34 E10       29.87F HX  93
WAXAHACHIE     MOSUNNY   93  63  37 SE8       29.88F HX  94
CLEBURNE       MOSUNNY   91  61  35 SE10G23   29.88F HX  91
$$

TXZ083>090-098>101-113>116-127>130-139>142-154-155-232300-
WESTERN NORTH TEXAS

CITY           SKY/WX    TMP DP  RH WIND       PRES   REMARKS
WICHITA FALLS  MOSUNNY   91  62  37 SE23G29   29.85F HX  91
WF-KICKAPOO    SUNNY     90  63  40 SE20G28   29.88F HX  91
VERNON         MOSUNNY   93  49  22 SE14G26   29.83F
ABILENE        MOSUNNY   89  60  37 SE18G28   29.84F
ABILENE-DYESS  SUNNY     90  61  37 S16       29.82F HX  90
BRECKENRIDGE   SUNNY     93  57  30 S16G23    29.84F HX  91
CISCO          MOSUNNY   90  59  35 SE17G26   29.87F
EASTLAND       MOSUNNY   91  60  35 S17G23    29.85F HX  90
RANGER         MOSUNNY   89  60  38 SE16      29.87F
MINERAL WELLS  MOSUNNY   91  62  37 SE17G26   29.85F HX  91
STEPHENVILLE   SUNNY     91  57  32 SE15      29.90F
COMANCHE       MOSUNNY   92  60  34 SE13G21   29.86F HX  91
COLEMAN        MOSUNNY   90  58  33 SE14G22   29.85F
$$

TXZ143>147-156>162-174-175-232300-
CENTRAL TEXAS

CITY           SKY/WX    TMP DP  RH WIND       PRES   REMARKS
WACO           MOSUNNY   93  61  34 S16       29.86F HX  93
WACO-TSTC      MOSUNNY   93  61  33 SE9G18    29.86F HX  93
WACO-MCGREGOR  MOSUNNY   93  62  35 S16       29.86F HX  93
HILLSBORO      SUNNY     91  64  40 SE12      29.88S HX  93
CORSICANA      MOSUNNY   93  62  35 SE13      29.88F HX  93
MEXIA          MOSUNNY   92  63  37 SE7       29.87F HX  92
HEARNE         SUNNY    N/A N/A N/A SE9       29.87F
CAMERON        SUNNY     91  65  42 SE9       29.86F HX  92
TEMPLE         SUNNY     90  66  45 SE13      29.87F HX  92
KILLEEN        MOSUNNY   89  62  40 SE9       29.86F
FORT HOOD      MOSUNNY  N/A N/A N/A SE12      29.84F
GATESVILLE     SUNNY     90  64  43 SE10G17   29.88F HX  91
HAMILTON       MOSUNNY   91  60  35 SE16G23   29.89F HX  91
LAMPASAS       MOSUNNY   91  65  43 S12G17    29.86F HX  93
$$

TXZ095>097-106>112-122>126-135>138-148>153-164>167-232300-
EAST TEXAS

CITY           SKY/WX    TMP DP  RH WIND       PRES   REMARKS
PARIS          MOSUNNY   90  68  48 E9        29.90F HX  94
SULPHUR SPRNGS MOSUNNY   91  63  38 SE6       29.90S HX  92
GILMER         PTSUNNY   85  65  51 E6        29.89S
MINEOLA        MOSUNNY   91  66  43 S7        29.88S HX  94
TYLER          PTSUNNY   92  64  39 MISG      29.88F HX  93
LONGVIEW       MOSUNNY   92  67  43 SE5       29.87F HX  95
MARSHALL       MOSUNNY   90  68  47 CALM      29.90F HX  93
ATHENS         SUNNY     91  61  35 SE3       29.86F HX  91
PALESTINE      MOSUNNY   91  67  44 S9        29.89F HX  94
JACKSONVILLE   SUNNY     90  65  44 SE7       29.91F HX  92
CENTER         CLEAR     94  71  46 E8        29.89F HX 101
$$

SUPPLEMENTAL OBSERVATIONS (NWS FORT WORTH AREA)

CITY           SKY/WX    TMP DP  RH WIND       PRES   REMARKS
$$

SUPPLEMENTAL OBSERVATIONS (NWS NORMAN AREA)

CITY           SKY/WX    TMP DP  RH WIND       PRES   REMARKS
GOODLETT         N/A     90  57  31 SE16      29.82F
ODELL            N/A     92  58  31 SE16      29.85F HX  91
CROWELL          N/A     93  58  30 S17       29.83F HX  92
KNOX CITY        N/A     93  54  26 SE17G24   29.82F HX  90
SEYMOUR          N/A     92  56  29 SE22G29   29.83F HX  90
$$

SUPPLEMENTAL OBSERVATIONS (NWS SAN ANGELO AREA)

CITY           SKY/WX    TMP DP  RH WIND       PRES   REMARKS
HASKELL          N/A     90  54  30 SE12      29.83F
THROCKMORTON     N/A     92  61  35 SE14G21   29.85F HX  92
STAMFORD         N/A     91  61  36 S16       29.83F HX  91
CLYDE            N/A     90  62  38 SE17      29.87F HX  90
$$

SUPPLEMENTAL OBSERVATIONS (NWS SHREVEPORT AREA)

CITY           SKY/WX    TMP DP  RH WIND       PRES   REMARKS
$$

SUPPLEMENTAL OBSERVATIONS ARE A COLLECTION OF AUTOMATED INSTRUMENTS
THAT ARE MAINTAINED BY A VARIETY OF FEDERAL AND STATE AGENCIES.
CERTAIN ELEMENTS...SUCH AS HUMIDITY VALUES AND SUSTAINED WIND
SPEEDS...MAY BE APPROXIMATED.





USA.gov is the U.S. government's official web portal to all federal, state and local government web resources and services.